Rensselaer, IN

3:03 PM CDT on May 23, 2017 (GMT -0500)
Jasper County

Weather History for KRZL - February, 2014

Change the Weather History Date:

Wednesday, February 26, 2014

  Actual Average (KIKK) Record (KIKK)
Temperature  
Mean Temperature 11 °F -  
Max Temperature 21 °F 39 °F 63 °F (1976)
Min Temperature 3 °F 20 °F -4 °F (2015)
Degree Days  
Heating Degree Days 54    
Moisture  
Dew Point 2 °F    
Average Humidity 66    
Maximum Humidity 78    
Minimum Humidity 53    
Precipitation  
Precipitation 0.00 in - - ()
Sea Level Pressure  
Sea Level Pressure 30.05 in    
Wind  
Wind Speed 13 mph (WSW)    
Max Wind Speed 28 mph    
Max Gust Speed 33 mph    
Visibility 10 miles    
Events      
Averages and records for this station are not official NWS values.
T = Trace of Precipitation, MM = Missing Value Source: NWS Daily Summary

Daily Weather History Graph

Daily Weather History Graph

Search for Another Location

Airport or City:

Trip Planner

Search our weather history database for the weather conditions in past years. The results will help you decide how hot, cold, wet, or windy it might be!

Date:

Astronomy

Feb. 26, 2014 Rise Set
Actual Time 6:27 AM CST 5:36 PM CST
Civil Twilight 5:59 AM CST 6:04 PM CST
Nautical Twilight 5:27 AM CST 6:35 PM CST
Astronomical Twilight 4:56 AM CST 7:07 PM CST
Moon 4:14 AM CST (2/26) 2:49 PM CST (2/26)
Length of Visible Light 12h 04m
Length of Day
11h 08m
Waning Crescent, 10% of the Moon is Illuminated
Feb 26
Waning Crescent
Mar 1
New
Mar 8
First Quarter
Mar 16
Full
Mar 23
Last Quarter

Hourly Weather History & Observations

Time (CST) Temp. Windchill Dew Point Humidity Pressure Visibility Wind Dir Wind Speed Gust Speed Precip Events Conditions
12:15 AM 8.6 °F -8.3 °F 1.4 °F 73% 30.20 in 10.0 mi WNW 15.0 mph 19.6 mph N/A   Clear
12:35 AM 8.6 °F -7.0 °F 1.4 °F 73% 30.21 in 10.0 mi WNW 12.7 mph 24.2 mph N/A   Clear
12:55 AM 8.6 °F -8.9 °F 1.4 °F 73% 30.21 in 10.0 mi WNW 16.1 mph 21.9 mph N/A   Clear
1:15 AM 8.6 °F -5.5 °F -0.4 °F 67% 30.21 in 10.0 mi WNW 10.4 mph 20.7 mph N/A   Clear
1:35 AM 8.6 °F -6.3 °F -0.4 °F 67% 30.22 in 10.0 mi WNW 11.5 mph 21.9 mph N/A   Clear
1:55 AM 6.8 °F -8.6 °F -0.4 °F 72% 30.21 in 10.0 mi WNW 11.5 mph 19.6 mph N/A   Clear
2:15 AM 6.8 °F -10.0 °F -0.4 °F 72% 30.22 in 10.0 mi WNW 13.8 mph 17.3 mph N/A   Clear
2:35 AM 6.8 °F -6.9 °F -0.4 °F 72% 30.22 in 10.0 mi WNW 9.2 mph - N/A   Clear
2:55 AM 5.0 °F -10.0 °F -2.2 °F 72% 30.22 in 10.0 mi WNW 10.4 mph 16.1 mph N/A   Clear
3:15 AM 5.0 °F -10.0 °F -2.2 °F 72% 30.21 in 10.0 mi WNW 10.4 mph 17.3 mph N/A   Clear
3:35 AM 5.0 °F -9.1 °F -2.2 °F 72% 30.21 in 10.0 mi WNW 9.2 mph 17.3 mph N/A   Clear
3:55 AM 5.0 °F -9.1 °F -2.2 °F 72% 30.21 in 10.0 mi WNW 9.2 mph 16.1 mph N/A   Clear
4:15 AM 5.0 °F -8.1 °F -2.2 °F 72% 30.21 in 10.0 mi WNW 8.1 mph - N/A   Clear
4:35 AM 5.0 °F -8.1 °F -2.2 °F 72% 30.21 in 10.0 mi West 8.1 mph - N/A   Clear
4:55 AM 5.0 °F -9.1 °F -2.2 °F 72% 30.21 in 10.0 mi WNW 9.2 mph - N/A   Clear
5:15 AM 5.0 °F -8.1 °F -2.2 °F 72% 30.22 in 10.0 mi West 8.1 mph - N/A   Clear
5:35 AM 3.2 °F -12.2 °F -2.2 °F 78% 30.22 in 10.0 mi West 10.4 mph - N/A   Clear
5:55 AM 3.2 °F -11.3 °F -2.2 °F 78% 30.23 in 10.0 mi West 9.2 mph - N/A   Clear
6:15 AM 3.2 °F -11.3 °F -2.2 °F 78% 30.23 in 10.0 mi West 9.2 mph - N/A   Clear
6:35 AM 3.2 °F -13.1 °F -4.0 °F 72% 30.23 in 10.0 mi West 11.5 mph - N/A   Clear
6:55 AM 3.2 °F -11.3 °F -4.0 °F 72% 30.23 in 10.0 mi West 9.2 mph - N/A   Clear
7:15 AM 3.2 °F -13.1 °F -4.0 °F 72% 30.24 in 10.0 mi West 11.5 mph - N/A   Clear
7:35 AM 5.0 °F -10.0 °F -2.2 °F 72% 30.24 in 10.0 mi West 10.4 mph - N/A   Clear
7:55 AM 5.0 °F -10.8 °F -2.2 °F 72% 30.24 in 10.0 mi West 11.5 mph - N/A   Clear
8:15 AM 5.0 °F -10.0 °F -2.2 °F 72% 30.23 in 10.0 mi West 10.4 mph - N/A   Clear
8:35 AM 5.0 °F -9.1 °F -2.2 °F 72% 30.23 in 10.0 mi West 9.2 mph - N/A   Clear
8:55 AM 6.8 °F -8.6 °F -0.4 °F 72% 30.23 in 10.0 mi West 11.5 mph - N/A   Clear
9:15 AM 6.8 °F -7.8 °F -0.4 °F 72% 30.21 in 10.0 mi West 10.4 mph - N/A   Clear
9:35 AM 8.6 °F -4.7 °F -0.4 °F 67% 30.21 in 10.0 mi WSW 9.2 mph - N/A   Clear
9:55 AM 8.6 °F -4.7 °F -0.4 °F 67% 30.20 in 10.0 mi West 9.2 mph - N/A   Clear
10:15 AM 8.6 °F -4.7 °F 1.4 °F 73% 30.20 in 10.0 mi WSW 9.2 mph - N/A   Clear
10:35 AM 10.4 °F -4.8 °F -0.4 °F 62% 30.20 in 10.0 mi WSW 12.7 mph 18.4 mph N/A   Clear
10:55 AM 10.4 °F -4.8 °F -0.4 °F 62% 30.19 in 10.0 mi WSW 12.7 mph - N/A   Clear
11:15 AM 10.4 °F -4.8 °F -0.4 °F 62% 30.17 in 10.0 mi West 12.7 mph - N/A   Clear
11:35 AM 12.2 °F -3.7 °F 1.4 °F 62% 30.16 in 10.0 mi WSW 15.0 mph 18.4 mph N/A   Clear
11:55 AM 12.2 °F -2.5 °F 1.4 °F 62% 30.15 in 10.0 mi WSW 12.7 mph - N/A   Clear
12:15 PM 12.2 °F -2.5 °F 1.4 °F 62% 30.14 in 10.0 mi WSW 12.7 mph - N/A   Clear
12:35 PM 12.2 °F -3.7 °F 1.4 °F 62% 30.12 in 10.0 mi WSW 15.0 mph - N/A   Clear
12:55 PM 14.0 °F -0.8 °F 1.4 °F 57% 30.10 in 10.0 mi WSW 13.8 mph - N/A   Clear
1:15 PM 14.0 °F -2.0 °F 3.2 °F 62% 30.08 in 10.0 mi SW 16.1 mph - N/A   Clear
1:35 PM 14.0 °F -0.8 °F 3.2 °F 62% 30.05 in 10.0 mi SW 13.8 mph - N/A   Clear
1:55 PM 14.0 °F -2.0 °F 3.2 °F 62% 30.04 in 10.0 mi SW 16.1 mph - N/A   Clear
2:15 PM 15.8 °F 1.4 °F 3.2 °F 58% 30.02 in 10.0 mi SW 13.8 mph - N/A   Clear
2:35 PM 15.8 °F 0.3 °F 3.2 °F 58% 30.00 in 10.0 mi SW 16.1 mph 21.9 mph N/A   Clear
2:55 PM 17.6 °F 2.2 °F 5.0 °F 58% 29.99 in 10.0 mi SW 17.3 mph 23.0 mph N/A   Clear
3:15 PM 17.6 °F 1.3 °F 3.2 °F 53% 29.98 in 10.0 mi SW 19.6 mph 26.5 mph N/A   Clear
3:35 PM 17.6 °F 1.3 °F 3.2 °F 53% 29.97 in 10.0 mi WSW 19.6 mph - N/A   Clear
3:55 PM 17.6 °F 2.7 °F 5.0 °F 58% 29.95 in 10.0 mi WSW 16.1 mph 20.7 mph N/A   Clear
4:15 PM 17.6 °F 1.3 °F 5.0 °F 58% 29.94 in 10.0 mi WSW 19.6 mph 28.8 mph N/A   Clear
4:35 PM 17.6 °F 0.9 °F 5.0 °F 58% 29.93 in 10.0 mi SW 20.7 mph 26.5 mph N/A   Clear
4:55 PM 17.6 °F 1.7 °F 5.0 °F 58% 29.91 in 10.0 mi WSW 18.4 mph 23.0 mph N/A   Clear
5:15 PM 17.6 °F 2.7 °F 5.0 °F 58% 29.90 in 10.0 mi SW 16.1 mph 24.2 mph N/A   Clear
5:35 PM 17.6 °F 1.3 °F 5.0 °F 58% 29.89 in 10.0 mi SW 19.6 mph 23.0 mph N/A   Clear
5:55 PM 15.8 °F 0.9 °F 3.2 °F 58% 29.88 in 10.0 mi SW 15.0 mph 23.0 mph N/A   Clear
6:15 PM 15.8 °F 0.9 °F 5.0 °F 62% 29.87 in 10.0 mi SW 15.0 mph - N/A   Clear
6:35 PM 15.8 °F 0.9 °F 5.0 °F 62% 29.86 in 10.0 mi SW 15.0 mph 21.9 mph N/A   Clear
6:55 PM 15.8 °F 0.9 °F 5.0 °F 62% 29.86 in 10.0 mi SW 15.0 mph - N/A   Clear
7:15 PM 17.6 °F 2.7 °F 5.0 °F 58% 29.85 in 10.0 mi SW 16.1 mph 23.0 mph N/A   Clear
7:35 PM 15.8 °F 0.9 °F 6.8 °F 68% 29.84 in 10.0 mi SW 15.0 mph - N/A   Clear
7:55 PM 17.6 °F 3.2 °F 5.0 °F 58% 29.83 in 10.0 mi SW 15.0 mph - N/A   Mostly Cloudy
8:15 PM 15.8 °F 2.1 °F 6.8 °F 68% 29.83 in 10.0 mi SSW 12.7 mph - N/A   Scattered Clouds
8:35 PM 15.8 °F 2.7 °F 6.8 °F 68% 29.83 in 10.0 mi SSW 11.5 mph - N/A   Clear
8:55 PM 15.8 °F 2.1 °F 8.6 °F 73% 29.83 in 10.0 mi SSW 12.7 mph - N/A   Clear
9:15 PM 15.8 °F 1.4 °F 8.6 °F 73% 29.81 in 10.0 mi SSW 13.8 mph - N/A   Clear
9:35 PM 15.8 °F -0.2 °F 8.6 °F 73% 29.79 in 10.0 mi SSW 17.3 mph - N/A   Clear
9:55 PM 17.6 °F 2.7 °F 8.6 °F 68% 29.78 in 10.0 mi SSW 16.1 mph - N/A   Mostly Cloudy
10:15 PM 17.6 °F 2.7 °F 8.6 °F 68% 29.76 in 10.0 mi SSW 16.1 mph 19.6 mph N/A   Scattered Clouds
10:35 PM 17.6 °F 2.7 °F 8.6 °F 68% 29.74 in 10.0 mi SSW 16.1 mph 21.9 mph N/A   Mostly Cloudy
10:55 PM 19.4 °F 2.8 °F 8.6 °F 63% 29.74 in 10.0 mi SW 21.9 mph 26.5 mph N/A   Overcast
11:15 PM 19.4 °F 4.1 °F 8.6 °F 63% 29.72 in 10.0 mi SW 18.4 mph 27.6 mph N/A   Overcast
11:35 PM 19.4 °F 2.5 °F 8.6 °F 63% 29.71 in 10.0 mi SW 23.0 mph 31.1 mph N/A   Overcast
11:55 PM 21.2 °F 3.5 °F 8.6 °F 58% 29.70 in 10.0 mi SW 27.6 mph 33.4 mph N/A   Overcast